• In Italy
  • List of Countries
  • For 7 days
  • Water Temperature
  • Satellite Maps
  • Weather Map
  • Weather Widgets
  • user-avatar
    Login

    Hourly Weather Stafford

    Today, 15 July, Sunday

    Time Temperature Precipitation Wind Pressure Humidity
    00:00 +16°C° 0 mm 2 mps 755 mmHg 87%
    01:00 +16°C° 0 mm 2 mps 755 mmHg 88%
    02:00 +15°C° 0 mm 1 mps 755 mmHg 88%
    03:00 +14°C° 0 mm 1 mps 754 mmHg 89%
    04:00 +15°C° 0 mm 1 mps 754 mmHg 88%
    05:00 +15°C° 0 mm 2 mps 754 mmHg 87%
    06:00 +16°C° 0 mm 2 mps 754 mmHg 85%
    07:00 +18°C° 0 mm 2 mps 754 mmHg 79%
    08:00 +19°C° 0 mm 2 mps 754 mmHg 74%
    09:00 +21°C° 0 mm 3 mps 754 mmHg 68%
    10:00 +22°C° 0 mm 3 mps 754 mmHg 64%
    11:00 +24°C° 0 mm 3 mps 754 mmHg 61%
    12:00 +25°C° 0 mm 3 mps 753 mmHg 56%
    13:00 +25°C° 0 mm 3 mps 753 mmHg 56%
    14:00 +25°C° 0 mm 3 mps 753 mmHg 55%
    15:00 +26°C° 0 mm 3 mps 753 mmHg 55%
    16:00 +25°C° 0 mm 3 mps 753 mmHg 58%
    17:00 +25°C° 0 mm 3 mps 753 mmHg 61%
    18:00 +24°C° 0 mm 3 mps 752 mmHg 65%
    19:00 +23°C° 0 mm 2 mps 753 mmHg 70%
    20:00 +20°C° 0 mm 2 mps 753 mmHg 76%
    21:00 +18°C° 0 mm 2 mps 753 mmHg 81%
    22:00 +18°C° 0 mm 2 mps 753 mmHg 84%
    23:00 +17°C° 0 mm 2 mps 753 mmHg 86%

    Tomorrow, 16 July, Monday

    Time Temperature Precipitation Wind Pressure Humidity
    00:00 +16°C° 0 mm 1 mps 753 mmHg 89%
    01:00 +16°C° 0 mm 1 mps 753 mmHg 89%
    02:00 +15°C° 0 mm 1 mps 752 mmHg 90%
    03:00 +15°C° 0 mm 1 mps 752 mmHg 91%
    04:00 +15°C° 0 mm 1 mps 752 mmHg 90%
    05:00 +16°C° 0 mm 2 mps 752 mmHg 88%
    06:00 +16°C° 0 mm 2 mps 752 mmHg 87%
    07:00 +17°C° 0.1 mm 2 mps 752 mmHg 83%
    08:00 +18°C° 0.1 mm 2 mps 752 mmHg 80%
    09:00 +20°C° 0.1 mm 3 mps 752 mmHg 76%
    10:00 +20°C° 0.3 mm 3 mps 752 mmHg 72%
    11:00 +21°C° 0.3 mm 3 mps 752 mmHg 68%
    12:00 +22°C° 0.3 mm 3 mps 751 mmHg 65%
    13:00 +22°C° 0.9 mm 3 mps 751 mmHg 66%
    14:00 +22°C° 0.9 mm 3 mps 751 mmHg 68%
    15:00 +22°C° 0.9 mm 3 mps 751 mmHg 70%
    16:00 +21°C° 1 mm 3 mps 751 mmHg 73%
    17:00 +21°C° 1 mm 3 mps 751 mmHg 76%
    18:00 +20°C° 1 mm 3 mps 751 mmHg 79%
    19:00 +19°C° 0.4 mm 3 mps 751 mmHg 81%
    20:00 +18°C° 0.4 mm 3 mps 752 mmHg 84%
    21:00 +16°C° 0.4 mm 3 mps 752 mmHg 86%
    22:00 +15°C° 0 mm 2 mps 752 mmHg 86%
    23:00 +15°C° 0 mm 2 mps 752 mmHg 86%

    Day after tomorrow, 17 July, Tuesday

    Time Temperature Precipitation Wind Pressure Humidity
    00:00 +14°C° 0 mm 2 mps 752 mmHg 86%
    01:00 +13°C° 0 mm 2 mps 752 mmHg 88%
    02:00 +13°C° 0 mm 2 mps 752 mmHg 89%
    03:00 +13°C° 0 mm 2 mps 752 mmHg 90%
    04:00 +13°C° 0 mm 2 mps 752 mmHg 89%
    05:00 +14°C° 0 mm 2 mps 752 mmHg 89%
    06:00 +15°C° 0 mm 2 mps 752 mmHg 88%
    07:00 +16°C° 0 mm 2 mps 753 mmHg 81%
    08:00 +18°C° 0 mm 2 mps 753 mmHg 75%
    09:00 +19°C° 0 mm 2 mps 753 mmHg 68%
    10:00 +20°C° 0.1 mm 2 mps 753 mmHg 65%
    11:00 +20°C° 0.1 mm 2 mps 753 mmHg 62%
    12:00 +21°C° 0.1 mm 3 mps 753 mmHg 59%
    13:00 +21°C° 0.1 mm 3 mps 753 mmHg 58%
    14:00 +21°C° 0.1 mm 3 mps 753 mmHg 57%
    15:00 +22°C° 0.1 mm 3 mps 753 mmHg 56%
    16:00 +21°C° 0.1 mm 3 mps 753 mmHg 59%
    17:00 +21°C° 0.1 mm 3 mps 753 mmHg 62%
    18:00 +20°C° 0.1 mm 3 mps 753 mmHg 65%
    19:00 +19°C° 0 mm 2 mps 753 mmHg 69%
    20:00 +17°C° 0 mm 2 mps 754 mmHg 73%
    21:00 +16°C° 0 mm 2 mps 754 mmHg 77%
    22:00 +15°C° 0 mm 2 mps 754 mmHg 79%
    23:00 +14°C° 0 mm 1 mps 754 mmHg 81%

    18 July, Wednesday

    Time Temperature Precipitation Wind Pressure Humidity
    00:00 +13°C° 0 mm 1 mps 754 mmHg 83%
    01:00 +13°C° 0 mm 1 mps 754 mmHg 84%
    02:00 +12°C° 0 mm 1 mps 754 mmHg 85%
    03:00 +12°C° 0 mm 1 mps 754 mmHg 86%
    04:00 +13°C° 0 mm 1 mps 754 mmHg 84%
    05:00 +14°C° 0 mm 1 mps 754 mmHg 82%
    06:00 +14°C° 0 mm 1 mps 754 mmHg 81%
    07:00 +16°C° 0 mm 1 mps 755 mmHg 76%
    08:00 +18°C° 0 mm 2 mps 755 mmHg 70%
    09:00 +19°C° 0 mm 2 mps 755 mmHg 65%
    10:00 +20°C° 0.1 mm 2 mps 755 mmHg 62%
    11:00 +21°C° 0.1 mm 2 mps 755 mmHg 60%
    12:00 +23°C° 0.1 mm 2 mps 755 mmHg 57%
    13:00 +23°C° 0.1 mm 2 mps 755 mmHg 58%
    14:00 +23°C° 0.1 mm 2 mps 755 mmHg 58%
    15:00 +23°C° 0.1 mm 2 mps 755 mmHg 59%
    16:00 +23°C° 0.1 mm 2 mps 755 mmHg 62%
    17:00 +22°C° 0.1 mm 1 mps 755 mmHg 66%
    18:00 +22°C° 0.1 mm 1 mps 755 mmHg 69%
    19:00 +21°C° 0.1 mm 1 mps 755 mmHg 72%
    20:00 +19°C° 0.1 mm 1 mps 755 mmHg 75%
    21:00 +18°C° 0.1 mm 1 mps 756 mmHg 77%
    22:00 +18°C° 0 mm 1 mps 756 mmHg 80%
    23:00 +16°C° 0 mm 1 mps 756 mmHg 82%

    19 July, Thursday

    Time Temperature Precipitation Wind Pressure Humidity
    00:00 +15°C° 0 mm 1 mps 756 mmHg 84%
    01:00 +15°C° 0 mm 1 mps 756 mmHg 85%
    02:00 +15°C° 0 mm 1 mps 756 mmHg 86%
    03:00 +14°C° 0 mm 1 mps 755 mmHg 87%
    04:00 +15°C° 0 mm 1 mps 756 mmHg 86%
    05:00 +15°C° 0 mm 1 mps 756 mmHg 85%
    06:00 +16°C° 0 mm 1 mps 756 mmHg 84%
    07:00 +18°C° 0 mm 1 mps 756 mmHg 78%
    08:00 +20°C° 0 mm 1 mps 756 mmHg 72%
    09:00 +21°C° 0 mm 1 mps 756 mmHg 67%
    10:00 +22°C° 0.1 mm 1 mps 756 mmHg 63%
    11:00 +23°C° 0.1 mm 1 mps 756 mmHg 60%
    12:00 +24°C° 0.1 mm 1 mps 755 mmHg 57%
    13:00 +24°C° 0.1 mm 2 mps 755 mmHg 56%
    14:00 +24°C° 0.1 mm 2 mps 755 mmHg 56%
    15:00 +24°C° 0.1 mm 2 mps 755 mmHg 55%
    16:00 +24°C° 0.1 mm 2 mps 755 mmHg 58%
    17:00 +23°C° 0.1 mm 2 mps 755 mmHg 61%
    18:00 +21°C° 0.1 mm 2 mps 754 mmHg 65%
    19:00 +20°C° 0 mm 3 mps 754 mmHg 68%
    20:00 +18°C° 0 mm 3 mps 754 mmHg 71%
    21:00 +16°C° 0 mm 3 mps 754 mmHg 73%
    22:00 +16°C° 0 mm 3 mps 755 mmHg 74%
    23:00 +15°C° 0 mm 2 mps 755 mmHg 75%

    20 July, Friday

    Time Temperature Precipitation Wind Pressure Humidity
    00:00 +15°C° 0 mm 2 mps 755 mmHg 76%
    01:00 +14°C° 0 mm 2 mps 754 mmHg 77%
    02:00 +14°C° 0 mm 2 mps 754 mmHg 78%
    03:00 +14°C° 0 mm 2 mps 754 mmHg 79%
    04:00 +14°C° 0 mm 1 mps 754 mmHg 79%
    05:00 +14°C° 0 mm 1 mps 753 mmHg 79%
    06:00 +15°C° 0 mm 1 mps 753 mmHg 79%
    07:00 +16°C° 0 mm 1 mps 753 mmHg 73%
    08:00 +19°C° 0 mm 1 mps 753 mmHg 67%
    09:00 +20°C° 0 mm 1 mps 753 mmHg 61%
    10:00 +21°C° 0 mm 1 mps 753 mmHg 58%
    11:00 +22°C° 0 mm 1 mps 753 mmHg 55%
    12:00 +23°C° 0 mm 1 mps 752 mmHg 53%
    13:00 +23°C° 0 mm 2 mps 752 mmHg 53%
    14:00 +23°C° 0 mm 2 mps 752 mmHg 53%
    15:00 +23°C° 0 mm 2 mps 752 mmHg 53%
    16:00 +23°C° 0 mm 2 mps 752 mmHg 56%
    17:00 +21°C° 0 mm 2 mps 752 mmHg 59%
    18:00 +21°C° 0 mm 2 mps 752 mmHg 62%
    19:00 +20°C° 0 mm 2 mps 752 mmHg 68%
    20:00 +18°C° 0 mm 2 mps 752 mmHg 73%
    21:00 +17°C° 0 mm 2 mps 752 mmHg 78%
    22:00 +16°C° 0 mm 2 mps 752 mmHg 80%
    23:00 +16°C° 0 mm 2 mps 752 mmHg 82%
    Show more